WAT6223 SKBO-SEGU

Flight info

Callsign WAT6223
Flight time N/A
Altitude 39000
Route VAPOM4R/14R OREGA DCT BOKAN/N0470F390 UP778 QIT/N0468F380 UW9 TEMOX TEMOX2
Aircraft B772/H-SDE2E3FGHIJ5LORVWXY/LB1D1

Departure

Time N/A
Airport El Dorado International Airport (SKBO)

Arrival

Time 2026-04-25 04:09
Airport José Joaquín de Olmedo International Airport (SEGU)
Time Latitude Longitude Altitude Speed Heading
2026-04-25 03:43 1.01351 -77.72221 39558 ft 489 kts 217°
2026-04-25 03:44 0.89628 -77.81226 39610 ft 493 kts 217°
2026-04-25 03:45 0.56969 -78.06245 40165 ft 488 kts 216°
2026-04-25 03:45 0.54743 -78.07856 39954 ft 492 kts 215°
2026-04-25 03:46 0.53230 -78.08935 39785 ft 493 kts 215°
2026-04-25 03:46 0.49804 -78.11391 39543 ft 490 kts 215°
2026-04-25 03:46 0.44240 -78.15435 39568 ft 494 kts 216°
2026-04-25 03:47 0.38662 -78.19537 39574 ft 493 kts 216°
2026-04-25 03:47 0.33132 -78.23626 39596 ft 492 kts 216°
2026-04-25 03:48 0.23944 -78.30444 39627 ft 493 kts 216°
2026-04-25 03:48 0.01724 -78.46972 39987 ft 494 kts 217°
2026-04-25 03:48 -0.15903 -78.60888 39405 ft 496 kts 222°
2026-04-25 03:49 -0.33866 -78.79671 39054 ft 497 kts 232°
2026-04-25 03:49 -0.35771 -78.82382 38886 ft 501 kts 240°
2026-04-25 03:49 -0.39314 -78.88425 38868 ft 494 kts 237°
2026-04-25 03:50 -0.41219 -78.91275 38453 ft 488 kts 235°
2026-04-25 03:50 -0.43221 -78.94066 37341 ft 495 kts 233°
2026-04-25 03:50 -0.45330 -78.96833 35931 ft 508 kts 231°
2026-04-25 03:50 -0.47591 -78.99666 34411 ft 520 kts 229°
2026-04-25 03:51 -0.49900 -79.02467 32850 ft 532 kts 227°
2026-04-25 03:51 -0.52274 -79.05283 31727 ft 536 kts 227°
2026-04-25 03:51 -0.54692 -79.08112 31017 ft 531 kts 227°
2026-04-25 03:51 -0.57229 -79.10774 30555 ft 518 kts 220°
2026-04-25 03:52 -0.60022 -79.12984 30012 ft 508 kts 211°
2026-04-25 03:52 -0.63090 -79.14774 29366 ft 500 kts 204°
2026-04-25 03:52 -0.66190 -79.16266 28616 ft 498 kts 202°
2026-04-25 03:52 -0.69382 -79.17764 27845 ft 497 kts 202°
2026-04-25 03:53 -0.72494 -79.19220 27199 ft 493 kts 203°
2026-04-25 03:53 -0.75586 -79.20664 26692 ft 486 kts 203°
2026-04-25 03:53 -0.78631 -79.22084 26129 ft 482 kts 203°
2026-04-25 03:53 -0.81676 -79.23503 25495 ft 479 kts 203°
2026-04-25 03:54 -0.84718 -79.24919 24835 ft 477 kts 203°
2026-04-25 03:54 -0.87728 -79.26322 24225 ft 474 kts 203°
2026-04-25 03:54 -0.90712 -79.27712 23666 ft 470 kts 204°
2026-04-25 03:54 -0.93679 -79.29089 23150 ft 465 kts 204°
2026-04-25 03:55 -0.96582 -79.30448 22640 ft 461 kts 204°
2026-04-25 03:55 -0.99529 -79.31813 22004 ft 459 kts 204°
2026-04-25 03:55 -1.02416 -79.33151 21462 ft 455 kts 204°
2026-04-25 03:55 -1.05254 -79.34478 21020 ft 449 kts 204°
2026-04-25 03:56 -1.08097 -79.35809 20493 ft 444 kts 205°
2026-04-25 03:56 -1.10897 -79.37093 19986 ft 440 kts 205°
2026-04-25 03:56 -1.13651 -79.38385 19430 ft 437 kts 205°
2026-04-25 03:56 -1.16412 -79.39677 18968 ft 430 kts 205°
2026-04-25 03:57 -1.19125 -79.40935 18496 ft 426 kts 205°
2026-04-25 03:57 -1.21851 -79.42194 18024 ft 421 kts 206°
2026-04-25 03:57 -1.24487 -79.43418 17515 ft 417 kts 206°
2026-04-25 03:57 -1.26939 -79.44557 17067 ft 412 kts 206°
2026-04-25 03:58 -1.29531 -79.45763 16585 ft 407 kts 206°
2026-04-25 03:58 -1.32111 -79.46963 15998 ft 402 kts 206°
2026-04-25 03:58 -1.34612 -79.48126 15132 ft 395 kts 205°
2026-04-25 03:58 -1.37078 -79.49271 14202 ft 388 kts 205°
2026-04-25 03:59 -1.39512 -79.50404 13554 ft 375 kts 205°
2026-04-25 03:59 -1.41849 -79.51489 13032 ft 357 kts 205°
2026-04-25 03:59 -1.43334 -79.52180 12735 ft 348 kts 205°
2026-04-25 03:59 -1.46159 -79.53494 12324 ft 325 kts 205°
2026-04-25 04:00 -1.48179 -79.54434 12113 ft 309 kts 205°
2026-04-25 04:00 -1.50072 -79.55315 11886 ft 293 kts 204°
2026-04-25 04:00 -1.51904 -79.56167 11525 ft 285 kts 205°
2026-04-25 04:00 -1.53709 -79.57007 10970 ft 285 kts 205°
2026-04-25 04:01 -1.55523 -79.57851 10475 ft 285 kts 205°
2026-04-25 04:01 -1.57303 -79.58678 9953 ft 284 kts 204°
2026-04-25 04:01 -1.59113 -79.59517 9446 ft 283 kts 204°
2026-04-25 04:01 -1.60905 -79.60351 8982 ft 281 kts 204°
2026-04-25 04:02 -1.62683 -79.61178 8627 ft 281 kts 204°
2026-04-25 04:02 -1.64447 -79.61998 8278 ft 279 kts 204°
2026-04-25 04:02 -1.66230 -79.62826 8017 ft 280 kts 204°
2026-04-25 04:02 -1.67987 -79.63644 7748 ft 281 kts 204°
2026-04-25 04:03 -1.69785 -79.64480 7423 ft 281 kts 205°
2026-04-25 04:03 -1.73747 -79.66324 6851 ft 279 kts 204°
2026-04-25 04:03 -1.87612 -79.72770 4241 ft 280 kts 205°
2026-04-25 04:03 -1.89358 -79.73582 4170 ft 269 kts 205°
2026-04-25 04:04 -1.91059 -79.74372 4013 ft 266 kts 205°
2026-04-25 04:04 -1.92744 -79.75160 3773 ft 267 kts 206°
2026-04-25 04:04 -1.94379 -79.76047 3536 ft 266 kts 210°
2026-04-25 04:04 -1.95971 -79.76968 3271 ft 265 kts 210°
2026-04-25 04:05 -1.97579 -79.77899 3079 ft 260 kts 210°
2026-04-25 04:05 -1.99136 -79.78798 2982 ft 259 kts 210°
2026-04-25 04:05 -2.00726 -79.79720 2715 ft 263 kts 210°
2026-04-25 04:05 -2.02278 -79.80653 2482 ft 245 kts 211°
2026-04-25 04:06 -2.03663 -79.81483 2309 ft 220 kts 210°
2026-04-25 04:06 -2.04922 -79.82207 2157 ft 198 kts 209°
2026-04-25 04:06 -2.06083 -79.82858 1930 ft 184 kts 208°
2026-04-25 04:06 -2.07157 -79.83465 1714 ft 170 kts 209°
2026-04-25 04:07 -2.08157 -79.84035 1510 ft 158 kts 209°
2026-04-25 04:07 -2.09068 -79.84554 1322 ft 139 kts 210°
2026-04-25 04:07 -2.09883 -79.85018 1141 ft 133 kts 209°
2026-04-25 04:07 -2.10692 -79.85453 979 ft 130 kts 209°
2026-04-25 04:08 -2.11459 -79.85899 773 ft 128 kts 211°
2026-04-25 04:08 -2.12233 -79.86342 598 ft 126 kts 211°
2026-04-25 04:08 -2.12988 -79.86774 436 ft 124 kts 210°
2026-04-25 04:08 -2.13738 -79.87208 282 ft 122 kts 212°
2026-04-25 04:09 -2.14476 -79.87631 139 ft 119 kts 211°
2026-04-25 04:09 -2.15190 -79.88050 35 ft 111 kts 210°
2026-04-25 04:09 -2.15582 -79.88275 36 ft 82 kts 208°
2026-04-25 04:09 -2.16009 -79.88521 39 ft 23 kts 210°
2026-04-25 04:10 -2.16154 -79.88605 39 ft 23 kts 211°
2026-04-25 04:10 -2.16279 -79.88677 39 ft 13 kts 210°
2026-04-25 04:10 -2.16339 -79.88720 39 ft 9 kts 238°
2026-04-25 04:10 -2.16314 -79.88779 39 ft 11 kts 342°
2026-04-25 04:11 -2.16146 -79.88714 40 ft 14 kts 31°
2026-04-25 04:11 -2.16051 -79.88658 39 ft 16 kts 30°
2026-04-25 04:11 -2.15946 -79.88597 39 ft 18 kts 30°
2026-04-25 04:12 -2.15844 -79.88537 38 ft 12 kts 30°
2026-04-25 04:12 -2.15804 -79.88514 38 ft 3 kts 29°
2026-04-25 04:12 -2.15772 -79.88506 38 ft 6 kts 20°
2026-04-25 04:12 -2.15662 -79.88448 37 ft 27 kts 31°
2026-04-25 04:13 -2.15486 -79.88342 35 ft 30 kts 31°
2026-04-25 04:13 -2.15299 -79.88242 35 ft 30 kts 360°
2026-04-25 04:13 -2.15215 -79.88306 35 ft 14 kts 295°
2026-04-25 04:13 -2.15159 -79.88391 36 ft 14 kts 332°
2026-04-25 04:14 -2.15063 -79.88361 35 ft 16 kts 29°
2026-04-25 04:14 -2.15001 -79.88327 35 ft 6 kts 20°
2026-04-25 04:14 -2.14967 -79.88347 36 ft 7 kts 294°
2026-04-25 04:14 -2.14960 -79.88364 36 ft 2 kts 289°
2026-04-25 04:15 -2.14954 -79.88379 36 ft 2 kts 298°
2026-04-25 04:15 -2.14953 -79.88380 36 ft 0 kts 298°